Regional Weather Roundup
Issued by NWS Sterling, VA

Home | Current Version | Previous Version | Text Only | Print | Product List | Glossary On
Versions: 1 2 3 4 5 6 7 8 9 10 11 12 13 14 15 16 17 18 19 20 21 22 23 24 25 26 27
000
ASUS41 KLWX 241410
RWRLWX

REGIONAL WEATHER ROUNDUP
NATIONAL WEATHER SERVICE BALTIMORE MD/WASHINGTON DC
900 AM EST TUE JAN 24 2017

Note: "FAIR" indicates few or no clouds below 12,000 feet
with no significant weather and/or obstructions to visibility.
 TC=TEMPERATURE CELSIUS

 * =Non NWS site. Station does not report precipitation (e.g. rain,
    snow, etc.), thunder, or fog.

DCZ001-MDZ009-015-VAZ040>042-051-053>054-241500-
WASHINGTON METRO

CITY           SKY/WX    TMP DP  RH WIND       PRES   REMARKS
WASHINGTON NAT MOSUNNY   41  37  86 N16G24    29.51S
DULLES         MOSUNNY   40  34  79 NW18G26   29.52S
ANDREWS AFB    PTSUNNY   40  36  87 NW21G26   29.48S
FT BELVOIR     MOSUNNY   41  34  77 NW16G22   29.52R
QUANTICO       PTSUNNY   41  36  82 N13G22    29.54R
COLLEGE PARK*  CLOUDY    39  34  81 N10       29.50S
LEESBURG*      MOSUNNY   41  39  93 NW14G22   29.54S
MANASSAS*      MOSUNNY  N/A N/A N/A N17G23    29.54R
GAITHERSBURG*  CLOUDY    37  34  87 NW10      29.55R

$$

MDZ006>007-011-014-241500-
BALTIMORE METRO

CITY           SKY/WX    TMP DP  RH WIND       PRES   REMARKS
BWI AIRPORT    PTSUNNY   40  37  89 NW16G26   29.49R
MD SCIENCE CTR   N/A     42  33  70 MISG      29.50R
MARTIN STATE   PTSUNNY   39  37  93 NW16      29.49R
ANNAPOLIS      CLOUDY    41  36  82 NW10      29.48R
FORT MEADE*    CLOUDY    39  36  87 NW6G23    29.52R

$$

MDZ012-015-019>023-241500-
MARYLAND EASTERN SHORE

CITY           SKY/WX    TMP DP  RH WIND       PRES   REMARKS
OCEAN CITY     CLOUDY    39  37  92 NW14G23   29.39R
SALISBURY      CLOUDY    39  37  92 NW16      29.42R
BAY BRIDGE AP* CLOUDY    39  36  87 MISG      29.48R
CAMBRIDGE*     CLOUDY    37  36  93 NW13G22   29.45R
EASTON*        CLOUDY    39  36  87 N13G22    29.49R

$$

MDZ017>025-241500-
SOUTHERN MARYLAND

CITY           SKY/WX    TMP DP  RH WIND       PRES   REMARKS
PATUXENT RIVER PTSUNNY   41  37  86 NW18      29.47R
ST INIGOES     CLOUDY    41  36  82 NW13G21   29.47R
LEONARDTOWN*   CLOUDY    39  36  87 NW8       29.50R

$$

MDZ003>005-241500-
NORTH CENTRAL MARYLAND

CITY           SKY/WX    TMP DP  RH WIND       PRES   REMARKS
FREDERICK*     PTSUNNY   39  37  93 N12       29.55F
HAGERSTOWN APT CLOUDY    38  32  79 NW9       29.54S
WESTMINSTER*     N/A     36  34  93 NW7       29.50R

$$

MDZ501>502-241500-
WESTERN MARYLAND

CITY           SKY/WX    TMP DP  RH WIND       PRES   REMARKS
OAKLAND*       FOG       30  30 100 W9G18     29.56R VSB<1/4 WCI  22
CUMBERLAND*    PTSUNNY   37  36  93 CALM      29.62S

$$

VAZ025>031-241500-
SHENANDOAH VALLEY

CITY           SKY/WX    TMP DP  RH WIND       PRES   REMARKS
WINCHESTER*    MOSUNNY   37  32  81 NW16      29.55S WCI  28
FRONT ROYAL*   CLOUDY    37  32  81 N3        29.55S
LURAY*         PTSUNNY   37  37 100 CALM      29.55S
NEW MARKET*    CLOUDY    37  33  87 CALM      29.56S
STAUNTON*      MOSUNNY   33  32  94 CALM      29.58R
WAYNESBORO*    MOSUNNY   34  31  90 NW3       29.56R

$$

WVZ021-048>050-054>055-241500-
EASTERN WEST VIRGINIA PANHANDLE

CITY           SKY/WX    TMP DP  RH WIND       PRES   REMARKS
MARTINSBURG    LGT RAIN  39  33  79 NW13      29.55S
PETERSBURG*    CLOUDY    38  36  92 E3        29.60R

$$

VAZ036>039-050-241500-
CENTRAL FOOTHILLS

CITY           SKY/WX    TMP DP  RH WIND       PRES   REMARKS
CHARLOTTESVILL PTSUNNY   44  32  62 NW8       29.54R
CULPEPER*      MOSUNNY   43  35  72 NW13      29.54S
ORANGE*          N/A     43  36  75 NW3       29.55S
GORDONSVILLE*  MOSUNNY   41  35  81 MISG      29.54S
WARRENTON*     MOSUNNY   42  33  69 NW15      29.53S

$$

VAZ055>057-241500-
NORTH AND CENTRAL PIEDMONT

CITY           SKY/WX    TMP DP  RH WIND       PRES   REMARKS
FREDERICKSBRG* SUNNY     41  38  87 NW8       29.53R
STAFFORD*      SUNNY     39  37  91 NW9G17    29.57R

$$

NCZ024-NYZ072-PAZ021-071-VAZ022-071-241500-
OTHER REGIONAL OBSERVATIONS

CITY           SKY/WX    TMP DP  RH WIND       PRES   REMARKS
NEW YORK CITY  CLOUDY    35  35 100 N15G28    29.38R FOG     WCI  25
PHILADELPHIA   CLOUDY    38  34  85 N16G25    29.42R WCI  29
PITTSBURGH     LGT RAIN  37  37 100 W7        29.64R
ROANOKE        CLOUDY    47  34  60 NW20G36   29.63R
RICHMOND       MOSUNNY   40  35  83 NW14      29.53R
RALEIGH        PTSUNNY   45  38  76 W5        29.62R

$$

ANZ530>537-241500-
MARINE OBSERVATIONS

STATION/POSITION TIME  TEMP    WIND        PRES
                       AIR SEA DIR/SP/G
                 (UTC) (F)     (DEG/KT/KT) (MB)
THOMAS PT LIGHT  1400   40 40  320/ 20/ 24   N/A
BALT KEY BRIDGE  1348   40     310/ 19/ 24  998.0R
COVE POINT       1348   39     350/ 23/ 26  998.3R
LEWISETTA        1348   40 44  330/ 12/ 19  998.2R
SOLOMONS ISLAND  1348      42  330/ 13/ 17   N/A
PINEY POINT      1348          340/ 19/ 21   N/A

$$





USA.gov is the U.S. government's official web portal to all federal, state and local government web resources and services.